Location: São Paulo
(23.5507°S, 46.6334°W)
Time: 18:07:37
(UTC-03:00)

Tiros 1 - Pass Details

Date: 14 February 2026
Orbit: 618 x 649 km, 48.4° (Epoch: 8 March)

Event Time Altitude Azimuth Distance (km) Brightness Sun altitude
Rises 03:31:19 0° 203° (SSW) 2,983 10.7 -30.8°
Reaches altitude 10° 03:35:27 10° 168° (SSE) 2,065 10.2 -30.0°
Maximum altitude 03:36:57 11° 150° (SSE) 1,973 10.3 -29.7°
Drops below altitude 10° 03:38:27 10° 131° (SE) 2,058 10.6 -29.4°
Sets 03:42:32 0° 97° (E) 2,956 11.5 -28.6°
